| time (UTC) | temp C | wind direction | speed KPH | gust KPH | rain 1hr cm | rain 24hr cm | rain mn cm | humidity % | barometer mb |
| 20260507090819 | 10 | 281 | 6.4 | 11.3 | 0.00 | 1.37 | 0.13 | 88 | 1013.5 |
| 20260507090218 | 11 | 320 | 3.2 | 9.7 | 0.00 | 1.37 | 0.13 | 88 | 1013.5 |
| 20260507085619 | 11 | 273 | 4.8 | 11.3 | 0.00 | 1.37 | 0.13 | 89 | 1013.3 |
| 20260507085018 | 11 | 236 | 3.2 | 9.7 | 0.00 | 1.37 | 0.13 | 90 | 1013.3 |
| 20260507084419 | 11 | 306 | 3.2 | 14.5 | 0.00 | 1.37 | 0.13 | 91 | 1013.3 |
| 20260507083820 | 11 | 242 | 8.0 | 12.9 | 0.03 | 1.37 | 0.13 | 91 | 1013.3 |
| 20260507083219 | 10 | 211 | 8.0 | 14.5 | 0.03 | 1.37 | 0.13 | 92 | 1013.3 |
| 20260507082619 | 10 | 288 | 4.8 | 11.3 | 0.03 | 1.37 | 0.13 | 92 | 1013.2 |
| 20260507082020 | 10 | 261 | 4.8 | 14.5 | 0.03 | 1.37 | 0.13 | 92 | 1013.2 |
| 20260507081419 | 10 | 275 | 4.8 | 12.9 | 0.03 | 1.37 | 0.13 | 92 | 1013.2 |
| 20260507080820 | 10 | 274 | 4.8 | 12.9 | 0.03 | 1.37 | 0.13 | 92 | 1013.2 |
| 20260507080220 | 10 | 303 | 3.2 | 12.9 | 0.03 | 1.37 | 0.13 | 92 | 1013.1 |
| 20260507075620 | 9 | 254 | 4.8 | 12.9 | 0.03 | 1.37 | 0.13 | 92 | 1013.1 |
| 20260507075015 | 9 | 276 | 3.2 | 12.9 | 0.05 | 1.37 | 0.13 | 92 | 1013.1 |
| 20260507074411 | 9 | 246 | 3.2 | 8.0 | 0.05 | 1.37 | 0.13 | 92 | 1013.1 |
| 20260507073818 | 9 | 260 | 4.8 | 11.3 | 0.03 | 1.35 | 0.10 | 92 | 1013.0 |
| 20260507073219 | 9 | 248 | 6.4 | 11.3 | 0.05 | 1.35 | 0.10 | 92 | 1013.0 |
| 20260507072618 | 9 | 231 | 3.2 | 11.3 | 0.05 | 1.35 | 0.10 | 92 | 1012.9 |
| 20260507072018 | 9 | 236 | 1.6 | 9.7 | 0.05 | 1.35 | 0.10 | 92 | 1012.8 |
| 20260507071410 | 9 | 233 | 1.6 | 6.4 | 0.05 | 1.35 | 0.10 | 92 | 1012.7 |
| 20260507070820 | 9 | 229 | 6.4 | 9.7 | 0.05 | 1.35 | 0.10 | 92 | 1012.7 |
| 20260507070220 | 9 | 236 | 3.2 | 11.3 | 0.05 | 1.35 | 0.10 | 92 | 1012.6 |
| 20260507065620 | 9 | 226 | 4.8 | 9.7 | 0.05 | 1.35 | 0.10 | 92 | 1012.6 |
| 20260507065020 | 9 | 254 | 4.8 | 11.3 | 0.05 | 1.32 | 0.08 | 92 | 1012.5 |
| 20260507064413 | 9 | 252 | 4.8 | 17.7 | 0.05 | 1.32 | 0.08 | 92 | 1012.5 |
| 20260507063819 | 9 | 251 | 4.8 | 12.9 | 0.05 | 1.32 | 0.08 | 92 | 1012.5 |
| 20260507063209 | 9 | 262 | 6.4 | 9.7 | 0.03 | 1.30 | 0.05 | 92 | 1012.5 |
| 20260507062619 | 9 | 257 | 3.2 | 9.7 | 0.05 | 1.30 | 0.05 | 92 | 1012.4 |
| 20260507062019 | 9 | 246 | 6.4 | 9.7 | 0.05 | 1.30 | 0.05 | 92 | 1012.4 |
| 20260507061411 | 9 | 260 | 1.6 | 11.3 | 0.03 | 1.27 | 0.05 | 92 | 1012.4 |
| 20260507060810 | 9 | 297 | 3.2 | 12.9 | 0.03 | 1.27 | 0.05 | 92 | 1012.3 |
| 20260507060218 | 9 | 17 | 3.2 | 11.3 | 0.03 | 1.27 | 0.05 | 92 | 1012.2 |
| 20260507055618 | 8 | 292 | 3.2 | 9.7 | 0.03 | 1.27 | 0.05 | 92 | 1012.1 |
| 20260507055019 | 8 | 240 | 3.2 | 8.0 | 0.03 | 1.27 | 0.05 | 92 | 1012.1 |
| 20260507054420 | 8 | 233 | 6.4 | 14.5 | 0.03 | 1.27 | 0.05 | 92 | 1012.1 |
| 20260507053819 | 8 | 229 | 4.8 | 9.7 | 0.03 | 1.27 | 0.05 | 92 | 1012.0 |
| 20260507053220 | 8 | 221 | 6.4 | 9.7 | 0.03 | 1.27 | 0.05 | 92 | 1012.0 |
| 20260507052619 | 8 | 244 | 3.2 | 12.9 | 0.00 | 1.27 | 0.03 | 92 | 1012.0 |
| 20260507052020 | 8 | 251 | 6.4 | 9.7 | 0.00 | 1.27 | 0.03 | 92 | 1012.0 |
| 20260507051420 | 8 | 227 | 6.4 | 9.7 | 0.00 | 1.27 | 0.03 | 92 | 1011.8 |
| 20260507050819 | 8 | 229 | 3.2 | 9.7 | 0.00 | 1.27 | 0.03 | 92 | 1011.8 |
| 20260507050210 | 8 | 267 | 4.8 | 9.7 | 0.00 | 1.27 | 0.03 | 92 | 1011.7 |
| 20260507045620 | 8 | 227 | 0.0 | 9.7 | 0.00 | 1.27 | 0.03 | 92 | 1011.6 |
| 20260507045020 | 8 | 238 | 4.8 | 8.0 | 0.00 | 1.27 | 0.03 | 92 | 1011.6 |
| 20260507044407 | 8 | 284 | 1.6 | 9.7 | 0.00 | 1.27 | 0.03 | 92 | 1011.5 |
| 20260507043819 | 8 | 215 | 4.8 | 12.9 | 0.00 | 1.27 | 0.03 | 92 | 1011.4 |
| 20260507043220 | 8 | 257 | 3.2 | 9.7 | 0.00 | 1.27 | 0.03 | 92 | 1011.4 |
| 20260507042619 | 7 | 236 | 6.4 | 9.7 | 0.00 | 1.27 | 0.03 | 92 | 1011.3 |
| 20260507042008 | 7 | 241 | 6.4 | 9.7 | 0.00 | 1.27 | 0.03 | 92 | 1011.2 |
| 20260507041420 | 7 | 236 | 0.0 | 11.3 | 0.00 | 1.27 | 0.03 | 92 | 1011.1 |
| 20260507040819 | 7 | 237 | 0.0 | 8.0 | 0.00 | 1.27 | 0.03 | 92 | 1011.1 |
| 20260507040219 | 7 | 235 | 4.8 | 9.7 | 0.00 | 1.27 | 0.03 | 92 | 1011.1 |
| 20260507035619 | 7 | 240 | 6.4 | 12.9 | 0.00 | 1.27 | 0.03 | 92 | 1011.1 |
| 20260507035020 | 7 | 240 | 3.2 | 8.0 | 0.03 | 1.27 | 0.03 | 92 | 1011.0 |
| 20260507034406 | 7 | 243 | 4.8 | 11.3 | 0.03 | 1.27 | 0.03 | 92 | 1011.0 |
| 20260507033814 | 7 | 244 | 1.6 | 8.0 | 0.03 | 1.27 | 0.03 | 92 | 1010.9 |
| 20260507033219 | 7 | 238 | 1.6 | 6.4 | 0.03 | 1.27 | 0.03 | 92 | 1010.9 |
| 20260507032609 | 7 | 254 | 0.0 | 8.0 | 0.03 | 1.27 | 0.03 | 92 | 1010.8 |
| 20260507032020 | 7 | 236 | 3.2 | 8.0 | 0.03 | 1.27 | 0.03 | 92 | 1010.8 |
| 20260507032005 | 7 | 236 | 3.2 | 8.0 | 0.03 | 1.27 | 0.03 | 92 | 1010.8 |
| 20260507031406 | 7 | 246 | 4.8 | 9.7 | 0.03 | 1.27 | 0.03 | 92 | 1010.7 |
| 20260507030819 | 7 | 241 | 6.4 | 11.3 | 0.03 | 1.27 | 0.03 | 92 | 1010.7 |
| 20260507030219 | 7 | 238 | 3.2 | 11.3 | 0.03 | 1.27 | 0.03 | 92 | 1010.7 |
| 20260507025619 | 7 | 242 | 1.6 | 6.4 | 0.03 | 1.27 | 0.03 | 92 | 1010.7 |
| 20260507025019 | 7 | 246 | 0.0 | 3.2 | 0.00 | 1.24 | 0.00 | 92 | 1010.6 |
| 20260507024420 | 7 | 241 | 1.6 | 11.3 | 0.00 | 1.24 | 0.00 | 92 | 1010.5 |
| 20260507023811 | 7 | 265 | 6.4 | 11.3 | 0.00 | 1.24 | 0.00 | 92 | 1010.4 |
| 20260507023208 | 7 | 239 | 3.2 | 9.7 | 0.00 | 1.24 | 0.00 | 92 | 1010.4 |
| 20260507022620 | 7 | 248 | 4.8 | 12.9 | 0.00 | 1.24 | 0.00 | 92 | 1010.4 |
| 20260507022013 | 7 | 268 | 0.0 | 8.0 | 0.00 | 1.24 | 0.00 | 92 | 1010.5 |
| 20260507021406 | 7 | 245 | 4.8 | 14.5 | 0.00 | 1.24 | 0.00 | 92 | 1010.5 |
| 20260507020806 | 7 | 246 | 6.4 | 11.3 | 0.00 | 1.24 | 0.00 | 92 | 1010.4 |
| 20260507020219 | 7 | 259 | 6.4 | 14.5 | 0.00 | 1.24 | 0.00 | 92 | 1010.4 |
| 20260507015619 | 7 | 290 | 3.2 | 16.1 | 0.00 | 1.24 | 0.00 | 92 | 1010.3 |
| 20260507015006 | 7 | 200 | 4.8 | 11.3 | 0.00 | 1.24 | 0.00 | 92 | 1010.3 |
| 20260507014419 | 7 | 260 | 4.8 | 14.5 | 0.00 | 1.24 | 0.00 | 92 | 1010.2 |
| 20260507013819 | 7 | 240 | 8.0 | 14.5 | 0.00 | 1.24 | 0.00 | 92 | 1010.3 |
| 20260507013219 | 7 | 228 | 4.8 | 14.5 | 0.00 | 1.24 | 0.00 | 92 | 1010.3 |
| 20260507012619 | 7 | 277 | 6.4 | 14.5 | 0.00 | 1.24 | 0.00 | 92 | 1010.3 |
| 20260507012021 | 7 | 246 | 3.2 | 11.3 | 0.00 | 1.24 | 0.00 | 92 | 1010.3 |
| 20260507011408 | 7 | 252 | 4.8 | 9.7 | 0.00 | 1.24 | 0.00 | 92 | 1010.1 |
| 20260507010819 | 7 | 238 | 6.4 | 12.9 | 0.00 | 1.24 | 0.00 | 92 | 1010.1 |
| 20260507010219 | 7 | 220 | 6.4 | 16.1 | 0.00 | 1.24 | 0.00 | 92 | 1010.1 |
| 20260507005619 | 7 | 211 | 6.4 | 14.5 | 0.00 | 1.24 | 0.00 | 92 | 1010.1 |
| 20260507005020 | 7 | 227 | 4.8 | 11.3 | 0.00 | 1.24 | 0.00 | 92 | 1010.0 |
| 20260507004420 | 7 | 228 | 6.4 | 11.3 | 0.00 | 1.24 | 0.00 | 92 | 1010.0 |
| 20260507003819 | 7 | 216 | 4.8 | 9.7 | 0.00 | 1.24 | 0.00 | 92 | 1010.1 |
| 20260507003220 | 7 | 235 | 4.8 | 9.7 | 0.00 | 1.24 | 0.00 | 92 | 1010.1 |
| 20260507002619 | 7 | 229 | 3.2 | 9.7 | 0.00 | 1.24 | 0.00 | 92 | 1010.1 |
| 20260507002012 | 7 | 202 | 1.6 | 6.4 | 0.00 | 1.24 | 0.00 | 92 | 1010.1 |
| 20260507001420 | 7 | 212 | 1.6 | 3.2 | 0.00 | 1.24 | 0.00 | 92 | 1010.1 |
| 20260507000807 | 7 | 206 | 1.6 | 6.4 | 0.00 | 1.24 | 0.00 | 92 | 1010.1 |
| 20260507000220 | 7 | 192 | 1.6 | 3.2 | 0.00 | 1.24 | 0.00 | 92 | 1010.2 |
| 20260506235619 | 7 | 192 | 3.2 | 8.0 | 0.00 | 1.24 | 0.00 | 92 | 1010.1 |
| 20260506235019 | 7 | 220 | 3.2 | 9.7 | 0.00 | 1.24 | 0.00 | 92 | 1010.2 |
| 20260506234419 | 7 | 209 | 3.2 | 8.0 | 0.00 | 1.24 | 0.00 | 92 | 1010.1 |
| 20260506233821 | 7 | 227 | 4.8 | 9.7 | 0.00 | 1.24 | 0.00 | 92 | 1010.1 |
| 20260506233220 | 7 | 230 | 4.8 | 6.4 | 0.00 | 1.24 | 0.00 | 92 | 1010.1 |
| 20260506232620 | 7 | 236 | 1.6 | 6.4 | 0.00 | 1.24 | 0.00 | 92 | 1010.1 |
| 20260506232019 | 7 | 234 | 1.6 | 6.4 | 0.00 | 1.24 | 0.00 | 92 | 1010.0 |
| 20260506231419 | 7 | 234 | 1.6 | 6.4 | 0.00 | 1.24 | 0.00 | 91 | 1010.0 |
| 20260506230819 | 7 | 240 | 4.8 | 8.0 | 0.00 | 1.24 | 0.00 | 91 | 1010.0 |
| 20260506230219 | 7 | 222 | 1.6 | 6.4 | 0.00 | 1.24 | 0.00 | 91 | 1010.0 |
| 20260506225619 | 8 | 225 | 4.8 | 8.0 | 0.00 | 1.24 | 0.00 | 91 | 1010.0 |
| 20260506225019 | 8 | 222 | 1.6 | 6.4 | 0.00 | 1.24 | 0.00 | 91 | 1009.9 |
| 20260506224420 | 8 | 221 | 3.2 | 6.4 | 0.00 | 1.24 | 0.00 | 91 | 1010.0 |
| 20260506223807 | 8 | 167 | 0.0 | 6.4 | 0.00 | 1.24 | 0.00 | 91 | 1009.9 |
| 20260506223220 | 8 | 227 | 3.2 | 9.7 | 0.00 | 1.24 | 0.00 | 91 | 1009.9 |
| 20260506222620 | 8 | 240 | 8.0 | 11.3 | 0.00 | 1.24 | 0.00 | 91 | 1009.8 |
| 20260506222019 | 8 | 186 | 4.8 | 11.3 | 0.00 | 1.24 | 0.00 | 91 | 1009.9 |
| 20260506221410 | 8 | 216 | 3.2 | 8.0 | 0.00 | 1.24 | 0.00 | 91 | 1009.8 |
| 20260506220808 | 8 | 217 | 1.6 | 8.0 | 0.00 | 1.24 | 0.00 | 91 | 1009.7 |
| 20260506220221 | 8 | 240 | 4.8 | 8.0 | 0.00 | 1.24 | 0.00 | 91 | 1009.7 |
| 20260506215621 | 8 | 217 | 4.8 | 9.7 | 0.00 | 1.24 | 1.24 | 91 | 1009.7 |
| 20260506215021 | 8 | 201 | 3.2 | 6.4 | 0.00 | 1.24 | 1.24 | 91 | 1009.7 |
| 20260506214421 | 8 | 246 | 4.8 | 11.3 | 0.00 | 1.24 | 1.24 | 90 | 1009.5 |
| 20260506213819 | 8 | 235 | 8.0 | 11.3 | 0.00 | 1.24 | 1.24 | 90 | 1009.5 |
| 20260506213220 | 8 | 225 | 1.6 | 9.7 | 0.00 | 1.24 | 1.24 | 90 | 1009.4 |
| 20260506212619 | 8 | 236 | 3.2 | 11.3 | 0.00 | 1.24 | 1.24 | 90 | 1009.4 |
| 20260506212020 | 8 | 243 | 8.0 | 11.3 | 0.00 | 1.24 | 1.24 | 90 | 1009.4 |
| 20260506211420 | 8 | 228 | 6.4 | 12.9 | 0.00 | 1.24 | 1.24 | 90 | 1009.3 |
| 20260506210819 | 8 | 223 | 11.3 | 16.1 | 0.00 | 1.24 | 1.24 | 90 | 1009.2 |
| 20260506210212 | 8 | 231 | 4.8 | 12.9 | 0.00 | 1.24 | 1.24 | 90 | 1009.0 |
| 20260506205619 | 8 | 237 | 8.0 | 11.3 | 0.00 | 1.24 | 1.24 | 90 | 1009.1 |
| 20260506205019 | 9 | 232 | 6.4 | 14.5 | 0.00 | 1.24 | 1.24 | 90 | 1009.2 |
| 20260506204420 | 9 | 244 | 8.0 | 12.9 | 0.00 | 1.24 | 1.24 | 90 | 1009.3 |
| 20260506203821 | 9 | 225 | 8.0 | 14.5 | 0.00 | 1.24 | 1.24 | 90 | 1009.2 |
| 20260506203220 | 9 | 223 | 6.4 | 12.9 | 0.00 | 1.24 | 1.24 | 90 | 1009.2 |
| 20260506202620 | 9 | 234 | 8.0 | 11.3 | 0.00 | 1.24 | 1.24 | 90 | 1009.2 |
| 20260506202020 | 9 | 238 | 6.4 | 14.5 | 0.00 | 1.24 | 1.24 | 90 | 1009.3 |
| 20260506201420 | 9 | 258 | 4.8 | 12.9 | 0.00 | 1.24 | 1.24 | 90 | 1009.2 |
| 20260506200821 | 9 | 229 | 8.0 | 12.9 | 0.00 | 1.24 | 1.24 | 90 | 1009.2 |
| 20260506200220 | 9 | 227 | 4.8 | 14.5 | 0.00 | 1.24 | 1.24 | 90 | 1009.1 |
| 20260506195619 | 9 | 236 | 8.0 | 14.5 | 0.00 | 1.24 | 1.24 | 90 | 1009.1 |
| 20260506195010 | 9 | 236 | 4.8 | 14.5 | 0.00 | 1.24 | 1.24 | 90 | 1009.1 |
| 20260506194419 | 9 | 220 | 4.8 | 14.5 | 0.00 | 1.24 | 1.24 | 90 | 1008.9 |
| 20260506193820 | 9 | 226 | 8.0 | 11.3 | 0.00 | 1.24 | 1.24 | 90 | 1008.7 |
| 20260506193220 | 9 | 234 | 9.7 | 16.1 | 0.00 | 1.24 | 1.24 | 90 | 1008.7 |
| 20260506192620 | 9 | 219 | 4.8 | 9.7 | 0.00 | 1.24 | 1.24 | 90 | 1008.6 |
| 20260506192019 | 9 | 228 | 4.8 | 12.9 | 0.00 | 1.24 | 1.24 | 90 | 1008.6 |
| 20260506191420 | 9 | 244 | 3.2 | 12.9 | 0.00 | 1.24 | 1.24 | 91 | 1008.5 |
| 20260506190819 | 9 | 209 | 4.8 | 11.3 | 0.00 | 1.24 | 1.24 | 91 | 1008.4 |
| 20260506190220 | 9 | 221 | 4.8 | 14.5 | 0.00 | 1.24 | 1.24 | 91 | 1008.3 |
| 20260506185620 | 9 | 231 | 4.8 | 11.3 | 0.00 | 1.24 | 1.24 | 91 | 1008.2 |
| 20260506185020 | 9 | 238 | 3.2 | 9.7 | 0.00 | 1.24 | 1.24 | 91 | 1008.2 |
| 20260506184421 | 9 | 242 | 3.2 | 8.0 | 0.00 | 1.24 | 1.24 | 91 | 1008.0 |
| 20260506183820 | 9 | 250 | 4.8 | 9.7 | 0.00 | 1.24 | 1.24 | 91 | 1008.0 |
| 20260506183221 | 9 | 231 | 4.8 | 8.0 | 0.00 | 1.24 | 1.24 | 91 | 1007.9 |
| 20260506182621 | 10 | 269 | 4.8 | 11.3 | 0.00 | 1.24 | 1.24 | 91 | 1007.9 |
| 20260506182021 | 10 | 247 | 8.0 | 12.9 | 0.00 | 1.24 | 1.24 | 91 | 1007.9 |
| 20260506181420 | 10 | 245 | 6.4 | 9.7 | 0.00 | 1.24 | 1.24 | 91 | 1007.8 |
| 20260506180819 | 10 | 312 | 3.2 | 12.9 | 0.00 | 1.24 | 1.24 | 91 | 1007.8 |
| 20260506180220 | 10 | 225 | 6.4 | 12.9 | 0.00 | 1.24 | 1.24 | 91 | 1007.7 |
| 20260506175620 | 10 | 267 | 4.8 | 12.9 | 0.00 | 1.24 | 1.24 | 91 | 1007.6 |
| 20260506175012 | 10 | 280 | 6.4 | 19.3 | 0.00 | 1.24 | 1.24 | 91 | 1007.6 |
| 20260506174419 | 10 | 234 | 6.4 | 14.5 | 0.00 | 1.24 | 1.24 | 91 | 1007.5 |
| 20260506173819 | 10 | 223 | 6.4 | 14.5 | 0.00 | 1.24 | 1.24 | 91 | 1007.4 |
| 20260506173219 | 10 | 306 | 6.4 | 16.1 | 0.00 | 1.24 | 1.24 | 91 | 1007.1 |
| 20260506172619 | 10 | 257 | 6.4 | 12.9 | 0.00 | 1.24 | 1.24 | 91 | 1007.2 |
| 20260506172008 | 10 | 223 | 1.6 | 12.9 | 0.03 | 1.24 | 1.24 | 91 | 1007.1 |
| 20260506171420 | 10 | 249 | 8.0 | 16.1 | 0.03 | 1.24 | 1.24 | 91 | 1007.0 |
| 20260506170821 | 10 | 236 | 8.0 | 17.7 | 0.03 | 1.24 | 1.24 | 91 | 1007.1 |
| 20260506170220 | 10 | 231 | 11.3 | 16.1 | 0.03 | 1.24 | 1.24 | 91 | 1007.1 |
| 20260506165620 | 10 | 246 | 9.7 | 12.9 | 0.03 | 1.24 | 1.24 | 91 | 1006.9 |
| 20260506165021 | 10 | 256 | 8.0 | 17.7 | 0.03 | 1.24 | 1.24 | 91 | 1006.7 |
| 20260506164421 | 10 | 244 | 6.4 | 17.7 | 0.05 | 1.24 | 1.24 | 91 | 1006.8 |
| 20260506163821 | 10 | 155 | 8.0 | 17.7 | 0.25 | 1.24 | 1.24 | 91 | 1006.7 |
| 20260506163220 | 10 | 280 | 11.3 | 24.1 | 0.36 | 1.24 | 1.24 | 91 | 1006.6 |
| 20260506162620 | 10 | 264 | 6.4 | 16.1 | 0.36 | 1.24 | 1.24 | 91 | 1006.7 |
| 20260506162020 | 10 | 188 | 4.8 | 22.5 | 0.38 | 1.22 | 1.22 | 91 | 1006.7 |
| 20260506161420 | 10 | 292 | 11.3 | 29.0 | 1.17 | 1.22 | 1.22 | 91 | 1006.6 |
| 20260506160819 | 10 | 242 | 11.3 | 29.0 | 1.19 | 1.22 | 1.22 | 91 | 1006.6 |
| 20260506160219 | 10 | 309 | 11.3 | 30.6 | 1.19 | 1.22 | 1.22 | 91 | 1006.7 |
| 20260506155620 | 10 | 289 | 12.9 | 30.6 | 1.19 | 1.22 | 1.22 | 90 | 1006.6 |
| 20260506155019 | 10 | 269 | 9.7 | 20.9 | 1.19 | 1.22 | 1.22 | 90 | 1006.6 |
| 20260506154419 | 11 | 258 | 11.3 | 20.9 | 1.17 | 1.17 | 1.17 | 90 | 1006.5 |
| 20260506153820 | 11 | 278 | 3.2 | 19.3 | 0.97 | 0.99 | 0.99 | 90 | 1006.5 |
| 20260506153208 | 11 | 223 | 8.0 | 30.6 | 0.86 | 0.89 | 0.89 | 89 | 1006.2 |
| 20260506152606 | 11 | 300 | 14.5 | 32.2 | 0.86 | 0.89 | 0.89 | 88 | 1006.0 |
| 20260506152020 | 12 | 240 | 9.7 | 38.6 | 0.81 | 0.84 | 0.84 | 85 | 1005.8 |
| 20260506151421 | 15 | 232 | 8.0 | 24.1 | 0.03 | 0.05 | 0.05 | 71 | 1005.1 |
| 20260506150821 | 16 | 264 | 1.6 | 3.2 | 0.00 | 0.03 | 0.03 | 68 | 1004.2 |
| 20260506150220 | 16 | 231 | 0.0 | 3.2 | 0.00 | 0.03 | 0.03 | 69 | 1004.1 |
| 20260506145621 | 16 | 231 | 0.0 | 3.2 | 0.00 | 0.05 | 0.03 | 67 | 1003.9 |
| 20260506145019 | 16 | 223 | 0.0 | 3.2 | 0.00 | 0.05 | 0.03 | 68 | 1003.9 |
| 20260506144420 | 16 | 202 | 1.6 | 6.4 | 0.00 | 0.05 | 0.03 | 68 | 1004.2 |
| 20260506143819 | 17 | 216 | 4.8 | 11.3 | 0.00 | 0.05 | 0.03 | 68 | 1004.2 |
| 20260506143220 | 17 | 179 | 6.4 | 16.1 | 0.00 | 0.05 | 0.03 | 67 | 1004.1 |
| 20260506142620 | 17 | 181 | 3.2 | 11.3 | 0.00 | 0.05 | 0.03 | 68 | 1004.2 |
| 20260506142020 | 17 | 242 | 1.6 | 8.0 | 0.00 | 0.05 | 0.03 | 68 | 1004.1 |
| 20260506141421 | 17 | 188 | 3.2 | 9.7 | 0.03 | 0.05 | 0.03 | 70 | 1004.1 |
| 20260506140806 | 17 | 245 | 0.0 | 3.2 | 0.03 | 0.05 | 0.03 | 74 | 1004.1 |
| 20260506140220 | 16 | 300 | 0.0 | 3.2 | 0.03 | 0.05 | 0.03 | 74 | 1004.0 |
| 20260506135606 | 16 | 326 | 0.0 | 1.6 | 0.03 | 0.05 | 0.03 | 78 | 1004.1 |
| 20260506135021 | 16 | 234 | 0.0 | 3.2 | 0.03 | 0.05 | 0.03 | 79 | 1004.3 |
| 20260506134421 | 16 | 214 | 1.6 | 6.4 | 0.03 | 0.05 | 0.03 | 79 | 1004.5 |
| 20260506133821 | 16 | 232 | 1.6 | 4.8 | 0.03 | 0.05 | 0.03 | 78 | 1004.5 |
| 20260506133221 | 16 | 260 | 0.0 | 3.2 | 0.03 | 0.05 | 0.03 | 77 | 1004.6 |
| 20260506132620 | 16 | 258 | 3.2 | 6.4 | 0.03 | 0.05 | 0.03 | 76 | 1004.6 |
| 20260506132019 | 16 | 273 | 1.6 | 6.4 | 0.03 | 0.05 | 0.03 | 74 | 1004.5 |
| 20260506131420 | 16 | 240 | 4.8 | 8.0 | 0.00 | 0.03 | 0.00 | 69 | 1004.5 |
| 20260506130819 | 16 | 264 | 0.0 | 3.2 | 0.00 | 0.03 | 0.00 | 68 | 1004.5 |
| 20260506130219 | 17 | 264 | 4.8 | 8.0 | 0.00 | 0.03 | 0.00 | 67 | 1004.4 |
| 20260506125620 | 17 | 250 | 0.0 | 4.8 | 0.00 | 0.03 | 0.00 | 68 | 1004.3 |
| 20260506125021 | 17 | 313 | 1.6 | 8.0 | 0.00 | 0.03 | 0.00 | 69 | 1004.3 |
| 20260506124420 | 16 | 27 | 0.0 | 8.0 | 0.00 | 0.03 | 0.00 | 70 | 1004.2 |
| 20260506123806 | 16 | 5 | 3.2 | 8.0 | 0.00 | 0.03 | 0.00 | 70 | 1004.2 |
| 20260506123221 | 16 | 355 | 6.4 | 8.0 | 0.00 | 0.03 | 0.00 | 71 | 1004.2 |
| 20260506122620 | 16 | 349 | 0.0 | 8.0 | 0.00 | 0.03 | 0.00 | 71 | 1004.2 |
| 20260506122020 | 16 | 332 | 3.2 | 8.0 | 0.00 | 0.03 | 0.00 | 73 | 1004.3 |
| 20260506122007 | 16 | 332 | 3.2 | 8.0 | 0.00 | 0.03 | 0.00 | 73 | 1004.3 |
| 20260506121420 | 16 | 293 | 0.0 | 4.8 | 0.00 | 0.03 | 0.00 | 72 | 1004.2 |
| 20260506120821 | 16 | 325 | 3.2 | 8.0 | 0.00 | 0.03 | 0.00 | 70 | 1004.2 |
| 20260506120220 | 16 | 13 | 4.8 | 8.0 | 0.00 | 0.03 | 0.00 | 71 | 1004.3 |
| 20260506115620 | 16 | 348 | 0.0 | 3.2 | 0.00 | 0.05 | 0.00 | 70 | 1004.3 |
| 20260506115019 | 16 | 269 | 1.6 | 6.4 | 0.00 | 0.05 | 0.00 | 71 | 1004.4 |
| 20260506114419 | 16 | 319 | 3.2 | 9.7 | 0.00 | 0.05 | 0.00 | 72 | 1004.4 |
| 20260506113819 | 16 | 342 | 3.2 | 8.0 | 0.00 | 0.05 | 0.00 | 69 | 1004.4 |
| 20260506113220 | 16 | 342 | 3.2 | 9.7 | 0.00 | 0.05 | 0.00 | 69 | 1004.5 |
| 20260506112620 | 16 | 61 | 3.2 | 9.7 | 0.00 | 0.05 | 0.00 | 70 | 1004.4 |
| 20260506112021 | 16 | 340 | 3.2 | 11.3 | 0.00 | 0.05 | 0.00 | 72 | 1004.5 |
| 20260506111421 | 17 | 43 | 4.8 | 11.3 | 0.00 | 0.05 | 0.00 | 70 | 1004.5 |
| 20260506110820 | 17 | 281 | 0.0 | 12.9 | 0.00 | 0.05 | 0.00 | 71 | 1004.6 |
| 20260506110220 | 17 | 355 | 1.6 | 9.7 | 0.00 | 0.05 | 0.00 | 71 | 1004.7 |
| 20260506105606 | 16 | 355 | 1.6 | 9.7 | 0.00 | 0.05 | 0.00 | 73 | 1004.7 |
| 20260506105021 | 16 | 350 | 1.6 | 12.9 | 0.00 | 0.05 | 0.00 | 73 | 1004.8 |
| 20260506104421 | 16 | 344 | 4.8 | 9.7 | 0.00 | 0.05 | 0.00 | 74 | 1004.8 |
| 20260506103821 | 15 | 310 | 4.8 | 12.9 | 0.00 | 0.05 | 0.00 | 75 | 1004.9 |
| 20260506103211 | 15 | 336 | 4.8 | 9.7 | 0.00 | 0.05 | 0.00 | 75 | 1004.8 |
| 20260506102613 | 15 | 341 | 8.0 | 12.9 | 0.00 | 0.05 | 0.00 | 74 | 1004.9 |
| 20260506102020 | 15 | 17 | 6.4 | 9.7 | 0.00 | 0.05 | 0.00 | 73 | 1005.0 |
| 20260506101420 | 16 | 360 | 6.4 | 8.0 | 0.00 | 0.05 | 0.00 | 70 | 1005.3 |
| 20260506100820 | 16 | 281 | 0.0 | 6.4 | 0.00 | 0.05 | 0.00 | 72 | 1005.5 |
| 20260506100220 | 16 | 17 | 0.0 | 6.4 | 0.00 | 0.05 | 0.00 | 72 | 1005.5 |
| 20260506095621 | 16 | 338 | 0.0 | 6.4 | 0.00 | 0.05 | 0.00 | 72 | 1005.5 |
| 20260506095020 | 16 | 273 | 1.6 | 4.8 | 0.00 | 0.05 | 0.00 | 71 | 1005.5 |
| 20260506094421 | 15 | 345 | 1.6 | 6.4 | 0.00 | 0.05 | 0.00 | 71 | 1005.6 |
| 20260506093820 | 15 | 300 | 1.6 | 3.2 | 0.00 | 0.05 | 0.00 | 73 | 1005.5 |
| 20260506093221 | 15 | 254 | 0.0 | 6.4 | 0.00 | 0.05 | 0.00 | 70 | 1005.5 |
| 20260506092606 | 15 | 229 | 1.6 | 8.0 | 0.00 | 0.05 | 0.00 | 71 | 1005.5 |
| 20260506092008 | 15 | 350 | 0.0 | 6.4 | 0.00 | 0.05 | 0.00 | 72 | 1005.6 |
| 20260506091420 | 15 | 274 | 0.0 | 3.2 | 0.00 | 0.05 | 0.00 | 73 | 1005.5 |